Regional Weather Roundup
Issued by NWS

Home | Current Version | Previous Version | Graphics & Text | Print | Product List | Glossary On
Versions: 1 2 3 4 5 6 7 8 9 10 11 12 13 14 15 16 17 18 19 20 21 22 23 24 25 26 27 28 29 30 31 32 33 34 35 36 37 38 39 40 41 42 43 44 45 46 47 48 49 50
113
ASUS45 KTFX 202110
RWRMT
MONTANA REGIONAL WEATHER ROUNDUP
NATIONAL WEATHER SERVICE GREAT FALLS MT
300 PM MDT SUN AUG 20 2017

NOTE: "FAIR" INDICATES FEW OR NO CLOUDS BELOW 12000 FEET WITH NO
SIGNIFICANT WEATHER AND/OR OBSTRUCTIONS TO VISIBILITY.

MTZ001>007-043-202200-
WEST OF THE DIVIDE

CITY           SKY/WX    TMP DP  RH WIND       PRES   REMARKS
KALISPELL      PTSUNNY   75  39  27 VRB3      30.03F
MISSOULA       CLOUDY    76  36  23 VRB7      30.05F
BUTTE          CLOUDY    74  24  15 VRB3      30.13F
MULLAN PASS    PTSUNNY   64  37  36 VRB3      30.21S
ANACONDA         N/A     70  30  23 N9        30.10F
DEER LODGE       N/A     70  34  26 E5        30.13F
EUREKA           N/A     75  34  22 MISG      30.02F
HAMILTON         N/A     73  37  27 N6        30.07F
LIBBY            N/A     77  36  22 SW3       30.02F
RONAN            N/A     74  45  35 E2        30.10F
$$

MTZ008-052>055-202200-
SOUTHWEST MONTANA

CITY           SKY/WX    TMP DP  RH WIND       PRES   REMARKS
BOZEMAN        SUNNY     77  32  19 VRB3      30.07F
DILLON         SUNNY     77  29  17 E3        30.08F
W YELLOWSTONE  SUNNY     73  30  20 SW14G21   30.17F
ENNIS          SUNNY     75  28  17 S6        30.14F
THREE FORKS      N/A     79  30  16 W2        30.04F
$$

MTZ009-010-012-014-046-048-049-054-202200-
EAST SLOPES AND CENTRAL MONTANA

CITY           SKY/WX    TMP DP  RH WIND       PRES   REMARKS
CUT BANK       CLOUDY    75  23  14 W13       30.01S
GREAT FALLS    CLOUDY    76  23  14 NW12      30.01F
MALMSTROM AFB  PTSUNNY   75  26  16 W7        30.01S
HELENA         MOSUNNY   80  27  14 W16       30.05F
AUGUSTA          N/A     76  24  14 W9        30.04S
BOWMANS CRNR     N/A     74  27  17 S8        30.01F
CHOTEAU          N/A     79  25  13 NE7G15    30.03F
FAIRFIELD        N/A     76  23  14 S3        30.01F
POWER            N/A     74  24  15 W3        30.01F
RAYNESFORD       N/A     74  26  16 W12G20    30.03S
ULM              N/A     78  26  14 S9        30.01F
$$

MTZ011-013-016-021-045-047-050-051-202200-
NORTH CENTRAL MONTANA

CITY           SKY/WX    TMP DP  RH WIND       PRES   REMARKS
HAVRE          CLOUDY    79  33  19 W16       29.94F
LEWISTOWN      SUNNY     77  34  21 NW12      30.01S
N BAR RANCH      N/A     77  37  24 VRB5G12   30.04F
CHINOOK          N/A     79  37  22 W14G25    29.93S
DENTON           N/A     75  33  21 NW8       29.97S
GEYSER           N/A     76  26  15 NW18G26   30.02S
GRASS RANGE      N/A     81  34  18 W10       29.96F
JUDITH GAP       N/A     76  24  14 W7        30.02S
WINIFRED         N/A     75  34  22 NW8       30.00F
$$

MTZ017>020-022>027-061-062-202200-
NORTHEAST MONTANA

CITY           SKY/WX    TMP DP  RH WIND       PRES   REMARKS
GLASGOW        SUNNY     80  34  19 S13G22    29.94F
JORDAN           N/A     81  36  19 S10G18    29.95F
SIDNEY         CLOUDY    77  39  25 S7        30.00F
WOLF POINT     SUNNY     80  35  19 SE8       29.96F
MALTA          MOSUNNY   82  37  20 W17G24    29.90F
PLENTYWOOD       N/A     75  27  16 CALM      30.00F
POPLAR           N/A     79  36  21 SE9       29.98F
$$

MTZ028>42-056>058-202200-
SOUTHCENTRAL AND SOUTHEAST MONTANA

CITY           SKY/WX    TMP DP  RH WIND       PRES   REMARKS
BAKER          CLOUDY    79  38  22 E15G21    30.02F
BILLINGS       MOSUNNY   79  40  24 S3        29.99F
LIVINGSTON     SUNNY     84  24  11 W18       30.03F
MILES CITY     MOSUNNY   85  36  17 SE14      29.94F
BIG TIMBER     SUNNY     81  25  12 W15G22    30.04F
HARLOWTON        N/A     78  25  14 MISG      30.02S
LAUREL           N/A     77  41  27 E1        29.99F
$$

REGIONAL REPORTS...DAKOTAS

CITY           SKY/WX    TMP DP  RH WIND       PRES   REMARKS
WILLISTON      SUNNY     77  29  17 VRB3      30.01F
MINOT          SUNNY     77  36  22 W12       30.01F
DICKINSON      CLOUDY    71  42  35 SE7       30.04F
BEACH          PTSUNNY   73  37  27 SE8G17    30.06F
CROSBY           N/A     77  27  15 SW8       30.00F
TIOGA            N/A     73  30  20 S5        30.03F
BISMARCK       CLOUDY    71  45  39 NE7       30.02F
GRAND FORKS    MOSUNNY   78  48  34 NW12G21   29.96S
FARGO          CLOUDY    76  50  40 VRB6      29.99S
BUFFALO SD       N/A     83  38  20 E12G31    29.95F
RAPID CITY     SUNNY     79  50  36 SE14      30.03F
$$

REGIONAL REPORTS...WYOMING/IDAHO/WASHINGTON

CITY           SKY/WX    TMP DP  RH WIND       PRES   REMARKS
GILLETTE       SUNNY     87  42  20 SE20G29   29.96F
SHERIDAN       SUNNY     86  41  20 NW6       29.96F
BUFFALO WY     SUNNY     89  33  13 N13G18    30.00F
CODY           SUNNY     74  43  32 N7        30.06F
YELLOWSTONE LA   N/A     70  23  17 VRB6      30.25S
IDAHO FALLS    SUNNY     80  36  20 SW10G20   30.08F
SALMON         CLOUDY    77  38  24 VRB3      30.05F
BOISE          SUNNY     84  39  20 W13       30.02F
SPOKANE        PTSUNNY   78  37  22 SW12G21   30.06F
$$

REGIONAL REPORTS...ALBERTA

CITY           SKY/WX    TMP DP  RH WIND       PRES   REMARKS
EDMONTON       MOSUNNY   63  45  51 W15G22    29.95F
CALGARY        LGT RAIN  68  34  28 W8G21     29.97S
LETHBRIDGE     PTSUNNY   73  30  20 N7        29.96F
MEDICINE HAT   PTSUNNY   75  34  22 W18G25    29.92F
$$

REGIONAL REPORTS...SASKATCHEWAN

CITY           SKY/WX    TMP DP  RH WIND       PRES   REMARKS
SWIFT CURRENT  CLOUDY    75  36  23 SW12G18   29.91F
REGINA         PTSUNNY   68  36  30 VRB2      29.99F
SASKATOON      PTSUNNY   68  48  49 W9G20     29.95S
$$




USA.gov is the U.S. government's official web portal to all federal, state and local government web resources and services.